Home   Weather   Luanda   Past weeks

Flag for Angola Past Weather in Luanda, Angola — Yesterday and Last 2 Weeks

Now
70 °F

Mild.


Feels Like: 70 °F
Forecast: 71 / 78 °F
Wind: 5 mph from South

Location: Luanda Airport

Current Time: Sep 25, 2016 at 4:50:58 AM

Latest Report: Sep 25, 2016 at 4:00 AM


Visibility: N/A

Pressure: 29.92 "Hg

Humidity: 94%

Dew Point: 68 °F

Location of LuandaLocation

Past Weather in Luanda — Graph

°F

Luanda Temperature Yesterday

Maximum temperature yesterday: 82 °F (at 1:00 PM)
Minimum temperature yesterday: 72 °F (at 12:00 AM)
Average temperature yesterday: 75 °F

High & Low Weather Summary for the Past Weeks

 TemperatureHumidityPressure
High82 °F (Sep 14, 10:00 AM)94% (Sep 11, 11:00 PM)30.04 "Hg (Sep 11, 11:00 PM)
Low66 °F (Sep 12, 1:00 AM)55% (Sep 19, 1:00 PM)29.83 "Hg (Sep 19, 4:00 PM)
Average73 °F80%29.94 "Hg
* Reported Sep 10 5:00 AM — Sep 25 2:00 AM, Luanda, Weather by CustomWeather, © 2016

Note: Actual official high and low records may vary slightly from our data, if they occured in-between our weather recording intervals... More about our weather records

Advertising

Luanda Weather History for the Previous 24 Hours

Scroll right to see more
 ConditionsComfort  
Time TempWeatherWind HumidityBarometerVisibility
2:00 AM
Sun, Sep 25
72 °FPassing clouds.5 mph88%29.95 "HgN/A
1:00 AM72 °FPassing clouds.5 mph88%29.95 "HgN/A
10:00 PM
Sat, Sep 24
72 °FPassing clouds.8 mph88%29.95 "HgN/A
9:00 PM73 °FPassing clouds.9 mph83%29.95 "HgN/A
8:00 PM73 °FPassing clouds.8 mph83%29.89 "HgN/A
7:00 PM73 °FPassing clouds.9 mph83%29.89 "HgN/A
5:00 PM77 °FSunny.12 mph74%29.86 "Hg10 mi
3:00 PM81 °FPassing clouds.12 mph62%29.86 "HgN/A
2:00 PM81 °FPassing clouds.12 mph66%29.89 "HgN/A
1:00 PM82 °FPassing clouds.12 mph62%29.89 "HgN/A
12:00 PM81 °FPassing clouds.9 mph66%29.95 "HgN/A
11:00 AM81 °FScattered clouds.5 mph66%29.95 "HgN/A
10:00 AM79 °FScattered clouds.3 mph70%29.98 "HgN/A
9:00 AM77 °FPartly sunny.3 mph74%29.98 "Hg4 mi
8:00 AM75 °FFog.2 mph78%29.98 "Hg3 mi
7:00 AM73 °FPartly sunny.3 mph83%29.98 "Hg4 mi
6:00 AM72 °FBroken clouds.5 mph88%29.95 "Hg4 mi
5:00 AM73 °FPassing clouds.3 mph83%29.95 "Hg4 mi
4:00 AM72 °FPassing clouds.9 mph83%29.95 "HgN/A
Weather by CustomWeather, © 2016

See weather overviewHow to use our weather pages